Regional Weather Roundup
Issued by NWS

Home | Current Version | Previous Version | Text Only | Print | Product List | Glossary On
Versions: 1 2 3 4 5 6 7 8 9 10 11 12 13 14 15 16 17 18 19 20 21 22 23 24 25 26 27 28 29 30 31 32 33 34 35 36 37 38 39 40 41 42 43 44 45 46 47 48 49 50
000
ASMX46 KSGX 261103
RWRMX

MEXICAN WEATHER ROUNDUP
NATIONAL WEATHER SERVICE SAN DIEGO CA
300 AM PST MON JAN 26 2015

BAJA CALIFORNIA

CITY           SKY/WX    TMP DP  RH WIND       PRES   REMARKS
TIJUANA        MOCLDY    68  21  17 SE12      30.00

NORTHWESTERN MEXICO

CITY           SKY/WX    TMP DP  RH WIND       PRES   REMARKS

NORTHEASTERN MEXICO

CITY           SKY/WX    TMP DP  RH WIND       PRES   REMARKS
MONTERREY      CLOUDY    52  36  54 NW6       30.26S
REYNOSA        PTCLDY    54  39  58 W2        30.24S
TORREON        MOCLDY    48  43  81 CALM      30.28
VICTORIA       MOCLDY    50  45  81 W5        30.27R

WESTERN MEXICO

CITY           SKY/WX    TMP DP  RH WIND       PRES   REMARKS
DURANGO        CLOUDY    46  45  93 NW2       30.34
GUADALAJARA    CLOUDY    55  50  82 N2        30.25F
MAZATLAN       CLOUDY    64  61  88 NE8       29.93F
PTO. VALLARTA  CLOUDY    72  66  83 N6        29.93F

CENTRAL MEXICO

CITY           SKY/WX    TMP DP  RH WIND       PRES   REMARKS
LEON           CLOUDY    57  37  47 NE7       30.37R
MEXICO CITY    PTCLDY    52  41  66 NW5       30.40R
MORELIA        MOCLDY    50  45  81 CALM      30.28R
S. LUIS POTOSI PTCLDY    50  39  66 SE7       30.35
TOLUCA         MOCLDY    43  37  81 NW8       30.42  FOG

SOUTHERN MEXICO

CITY           SKY/WX    TMP DP  RH WIND       PRES   REMARKS
ACAPULCO       MOCLDY    73  70  88 N2        29.92R
MINATITLAN     MOCLDY    68  61  77 N12       30.13
TAPACHULA        N/A    N/A N/A N/A MISG        N/A

YUCATAN PENINSULA

CITY           SKY/WX    TMP DP  RH WIND       PRES   REMARKS
CANCUN         CLEAR     55  54  94 NW6       30.09S
COZUMEL        CLEAR     64  57  77 NW15      30.10S
MERIDA         CLEAR     59  55  88 NW6       30.13S

$$




USA.gov is the U.S. government's official web portal to all federal, state and local government web resources and services.